TeikyoSat 4
1 49396U 21102B   25301.49534005  .00003132  00000-0  20533-3 0  9993
2 49396  97.3965 334.7875 0012765  18.2390 341.9294 15.08334655217780
Z-Sat
1 49399U 21102E   25301.63317363  .00006033  00000-0  31818-3 0  9999
2 49399  97.3650 338.9363 0016786 340.1182  19.9395 15.15802018218332
KOSEN 1
1 49402U 21102H   25301.56810181  .00009860  00000-0  42671-3 0  9992
2 49402  97.3541 343.4154 0013574 309.0068  50.9959 15.22545744218726
HO-113
1 50466U 21131B   25301.65739706  .00000897  00000-0  29263-3 0  9992
2 50466  98.5072  30.3058 0005185  79.0220 281.1552 14.41017704201761
SNUGLITE 2
1 52899U 22065F   25301.61702334  .00001922  00000-0  37879-3 0  9996
2 52899  98.1894  82.4210 0008116  38.2880 321.8897 14.63643274177111
UmKA 1 (RS40S)
1 57172U 23091G   25301.57993797  .00009243  00000-0  46650-3 0  9996
2 57172  97.5405 356.2531 0013301 200.4082 159.6622 15.17260436128842
CubeBel-2 (EU11S)
1 57175U 23091K   25301.59004641  .00014167  00000-0  61404-3 0  9997
2 57175  97.5402 358.3717 0010809 203.4668 156.6076 15.22437494128985
ENSO
1 58470U 23185J   25301.66904900  .00583689  14501-3  14187-2 0  9994
2 58470  97.3497  23.6459 0007571 268.2613  91.7796 15.96231002107132
SONATE-2
1 59112U 24043Q   25301.33439370  .00031466  00000-0  74058-3 0  9991
2 59112  97.5306  76.0150 0009331 332.8063  27.2693 15.41860865 91979
MO-122
1 60209U 24125G   25301.56259739  .00033451  00000-0  76562-3 0  9993
2 60209  97.2592 152.0106 0016180 355.6266   4.4837 15.42591198 73637
GRBBeta
1 60237U 24128C   25301.35517445  .00005622  00000-0  40468-3 0  9990
2 60237  61.9910 308.2447 0057035  86.9406 273.8210 15.04091960 71362
Curium One
1 60242U 24128H   25301.58213468  .00010508  00000-0  67346-3 0  9992
2 60242  61.9804 303.3322 0056972  83.5329 277.2247 15.07677963 71470
ROBUSTA-3A
1 60243U 24128J   25301.56721164  .00009993  00000-0  65201-3 0  9992
2 60243  61.9880 304.7293 0056726  81.0203 279.7305 15.07080389 71458
CatSat
1 60246U 24125J   25301.33781496  .00035638  00000-0  98207-3 0  9998
2 60246  97.2402 149.3290 0035817 313.4344  46.3921 15.36386243 71541
HYPERVIEW-1G (RS66S)
1 61772U 24199AP  25301.67860564  .00040019  00000-0  89686-3 0  9995
2 61772  97.3269 170.6925 0013442  50.7679 309.4760 15.43226609 98654
AO-123
1 61781U 24199AY  25301.64922337  .00012090  00000-0  40821-3 0  9995
2 61781  97.3301 167.6218 0016829  60.0760 300.2150 15.30684963 98445
ZIMSAT 2
1 61783U 24199BA  25301.63331602  .00109927  00000-0  14879-2 0  9994
2 61783  97.3196 172.9336 0011496  48.0523 312.1710 15.57261338101958
HADES-R (SO-124)
1 62690U 25009CK  25301.16314739  .00104932  00000-0  21966-2 0  9999
2 62690  97.3955  22.5317 0002709 285.7889  74.3061 15.45054286 43714
HYDRA-T
1 62692U 25009CM  25301.17533846  .00109451  00000-0  22326-2 0  9996
2 62692  97.3950  22.6681 0002669 276.1134  83.9811 15.45797388 43725
JINJUSat 1B
1 63210U 25052A   25301.46438375  .00019463  00000-0  79004-3 0  9993
2 63210  97.4211 193.9679 0003959 152.0054 208.1397 15.24629854 34682
NUSHSAT 1
1 63211U 25052B   25301.22370698  .00021024  00000-0  83473-3 0  9992
2 63211  97.4197 193.7987 0003667 154.1432 205.9990 15.25357739 34657
TEVEL2-4
1 63213U 25052D   25300.68184854  .00017727  00000-0  71620-3 0  9996
2 63213  97.4117 192.9040 0002222 159.4135 200.7193 15.24811127 34569
TEVEL2-5
1 63214U 25052E   25301.21042931  .00019710  00000-0  79654-3 0  9995
2 63214  97.4115 193.4198 0002332 159.2804 200.8529 15.24780687 34640
TEVEL2-6
1 63215U 25052F   25301.21632166  .00019373  00000-0  78402-3 0  9996
2 63215  97.4117 193.4160 0002324 158.7133 201.4202 15.24735608 34640
TEVEL2-1
1 63217U 25052H   25301.44684621  .00020361  00000-0  83060-3 0  9991
2 63217  97.4096 193.4919 0001755 177.2368 182.8880 15.24457804 34679
TEVEL2-3
1 63218U 25052J   25301.51221556  .00020374  00000-0  83071-3 0  9990
2 63218  97.4093 193.5598 0001825 179.8677 180.2561 15.24475316 34687
TEVEL2-2
1 63219U 25052K   25301.64454314  .00020685  00000-0  84356-3 0  9997
2 63219  97.4095 193.6873 0001802 178.1126 182.0119 15.24465237 34706
TEVEL2-9
1 63237U 25052AD  25301.43360399  .00018843  00000-0  80089-3 0  9995
2 63237  97.4154 193.2456 0005111 233.7914 126.2851 15.23076901 34646
TEVEL2-7
1 63238U 25052AE  25301.64064559  .00019402  00000-0  82718-3 0  9991
2 63238  97.4157 193.4323 0005207 233.1950 126.8810 15.22966344 34677
TEVEL2-8
1 63239U 25052AF  25301.44836653  .00019077  00000-0  81432-3 0  9992
2 63239  97.4156 193.2289 0005234 234.9289 125.1457 15.22929573 34649
HYDRA-W
1 63490U 25052BL  25300.42718799  .00052426  00000-0  15888-2 0  9994
2 63490  97.4090 193.8104 0005776 222.0488 138.0312 15.33950940 34600
HADES-ICM (SO-125)
1 63492U 25052BN  25301.22416798  .00055898  00000-0  17538-2 0  9999
2 63492  97.4092 194.4439 0006269 228.6045 131.4659 15.32826638 34719
Dragonfly
1 65729U 98067XH  25301.58481986  .00099944  00000-0  12599-2 0  9992
2 65729  51.6321   4.5142 0002916  51.6729 308.4525 15.58795618  6090
RSP-03
1 65732U 98067XL  25301.59485543  .00085564  00000-0  11184-2 0  9992
2 65732  51.6323   4.5814 0005175  27.0741 333.0520 15.57894823  6101
GHS-01
1 65733U 98067XM  25301.45003707  .00110048  00000-0  13550-2 0  9991
2 65733  51.6331   5.1158 0003354  46.9345 313.1928 15.59370943  6088
BOTAN
1 65942U 98067XP  25301.55756040  .00075233  00000-0  11622-2 0  9993
2 65942  51.6331   5.8297 0004385 346.1150  13.9719 15.53420212  2825
